Powrót do katalogu

FENGYUN 1C DEB *

AktywnyPO
NORAD 47009·DEBRIS·🇨🇳 China

Wystrzelony May 10, 1999 z Taiyuan Satellite Launch Center

Loading…

Następne Przeloty (najbliższe 24 godziny)

TLE

ŚwieżeSource: Space-Track

Epoka: Sep 12, 2026, 03:00 UTC

1 47009U 99025FAK 26255.12534607  .00000026  00000-0  87547-4 0  9996
2 47009  98.9706 211.7492 0351955 298.1958  58.4045 13.37440879624630

Śledź FENGYUN 1C DEB * w czasie rzeczywistym z AllMySat

Download on the App Store